Regional Weather Roundup
Issued by NWS

Home | Current Version | Previous Version | Graphics & Text | Print | Product List | Glossary On
Versions: 1 2 3 4 5 6 7 8 9 10 11 12 13 14 15 16 17 18 19 20 21 22 23 24 25 26 27 28 29 30 31 32 33 34 35 36 37 38 39 40 41 42 43 44 45 46 47 48 49 50
000
ASUS43 KDTX 072101
RWRMI
MICHIGAN HOURLY REGIONAL WEATHER ROUNDUP
NATIONAL WEATHER SERVICE DETROIT/PONTIAC MI
400 PM EST SUN FEB 07 2016

NOTE: "FAIR" INDICATES FEW OR NO CLOUDS BELOW 12,000 FEET WITH NO
SIGNIFICANT WEATHER AND/OR OBSTRUCTION TO VISIBILITY.

MIZ047>049-052>055-059>063-066>070-074>076-081>083-072200-
SOUTHEAST LOWER MICHIGAN

CITY           SKY/WX    TMP DP  RH WIND       PRES   REMARKS
ADRIAN         CLOUDY    46  31  55 SW17      29.77F
ALMA           MOSUNNY   45  32  60 SW13G20   29.69S
ANN ARBOR      CLOUDY    46  30  53 S15G24    29.75F
BAD AXE        CLOUDY    45  33  63 S15       29.72F
CARO           CLOUDY    47  28  47 S13G22    29.70F
DETROIT CITY   PTSUNNY   48  30  49 S14       29.78F
DETROIT        CLOUDY    49  29  46 S21       29.79F
FLINT          CLOUDY    49  27  42 S10G23    29.73S
GROSSE ILE     CLOUDY    48  32  53 S12       29.77F
HILLSDALE      MOSUNNY   44  28  54 S12G17    29.74S
HOWELL         CLOUDY    46  30  53 S10G21    29.72S

CITY           SKY/WX    TMP DP  RH WIND       PRES   REMARKS
JACKSON        PTSUNNY   47  27  45 S16G24    29.72S
LAMBERTVILLE   PTSUNNY   49  30  48 SW17G24   29.79F
LANSING        CLOUDY    46  29  51 S17       29.71F
LAPEER         PTSUNNY   45  30  56 S14G21    29.74S
MASON          PTSUNNY   46  30  54 S7        29.71F
MONROE         CLOUDY    49  31  51 S13G20    29.78F
MT. CLEMENS    PTSUNNY   45  33  62 S14       29.76F
PONTIAC        CLOUDY    45  29  53 S10G22    29.73F
PORT HOPE        N/A     41  32  70 SE9       29.71F
PORT HURON     CLOUDY    45  32  61 S13G20    29.78F
TRI CITIES     MOSUNNY   47  30  51 S14       29.69F
MIDLAND        FAIR      44  29  56 S10G17    29.68S
TROY           CLOUDY    49  28  45 S15G22    29.78F
SAGINAW HB     CLOUDY    45  32  61 S13G18    29.70S
$$
MIZ043>046-050>051-056>058-064>065-071>073-077>080-072200-
SOUTHWEST LOWER MICHIGAN

CITY           SKY/WX    TMP DP  RH WIND       PRES   REMARKS
BATTLE CREEK   PTSUNNY   45  30  55 SW17      29.72R
BENTON HARBOR  CLOUDY    44  32  62 SW16      29.74R
BIG RAPIDS     CLOUDY    39  30  69 SW8G18    29.66R WCI  34
COLDWATER      CLOUDY    46  30  52 SW14G24   29.74R
FREMONT        CLOUDY    39  31  72 SW14G22   29.68R WCI  31
HOLLAND        CLOUDY    42  31  64 SW21G28   29.72R
GRAND RAPIDS   CLOUDY    44  31  60 SW13      29.71R
IONIA          FAIR      44  30  59 S9        29.69R
KALAMAZOO      PTSUNNY   46  29  51 SW17G25   29.72R
LUDINGTON      SUNNY     39  32  77 S13G22    29.65S WCI  31
MARSHALL       MOSUNNY   47  30  52 SW15G21   29.72R
MOUNT PLEASANT MOSUNNY   46  29  52 S12       29.67R
MUSKEGON       CLOUDY    41  32  70 S16       29.70R
SOUTH HAVEN    CLOUDY    42  32  67 SW14G24   29.72S
$$
MIZ016>042-072200-
NORTHERN LOWER MICHIGAN

CITY           SKY/WX    TMP DP  RH WIND       PRES   REMARKS
ALPENA         CLOUDY    39  29  67 S14       29.66F WCI  31
BEAVER ISLAND  CLOUDY    38  32  79 S7        29.60R WCI  33
BELLAIRE       CLOUDY    43  31  63 S6        29.61S
CADILLAC       CLOUDY    39  31  72 S16G23    29.61R WCI  30
CHARLEVOIX     CLOUDY    41  31  67 SW7       29.63S
FRANKFORT      PTSUNNY   39  32  76 S12G20    29.63R WCI  32
GAYLORD        CLOUDY    39  30  70 S9        29.60S WCI  33
GRAYLING       CLOUDY    42  30  62 SW9       29.62S
HARBOR SPRINGS CLOUDY    40  31  70 SW3       29.61S
HOUGHTON LAKE  CLOUDY    41  29  62 S12       29.63S
MANISTEE       CLOUDY    39  28  65 SW12G18   29.64R WCI  32
OSCODA         CLOUDY    40  31  69 S8        29.68F WCI  35
PELLSTON       CLOUDY    36  31  82 SE5       29.61F WCI  32
ROGERS CITY    PTSUNNY   38  30  71 S8        29.65S WCI  32
TRAVERSE CITY  CLOUDY    43  30  60 SW12G17   29.60R
$$
MIZ007>008-015-072200-
EASTERN UPPER MICHIGAN

CITY           SKY/WX    TMP DP  RH WIND       PRES   REMARKS
KINROSS        CLOUDY    34  34 100 SE16      29.62S WCI  23
MACKINAC ISLAN CLOUDY    33  33 100 E8        29.62S FOG     WCI  27
NEWBERRY       CLOUDY    34  33  95 S10       29.57R WCI  26
S. S. MARIE    CLOUDY    30  27  88 E8        29.64R WCI  22
$$
MIZ004>006-011>014-085-072200-
CENTRAL UPPER MICHIGAN

CITY           SKY/WX    TMP DP  RH WIND       PRES   REMARKS
MANISTIQUE     CLOUDY    36  33  90 SW8       29.56S WCI  29
ESCANABA       CLOUDY    36  32  87 SW6       29.55R WCI  31
MENOMINEE      CLOUDY    39  28  65 SW7       29.57R WCI  34
SAWYER-GWINN   CLOUDY    32  30  93 SW8       29.51R FOG     WCI  25
$$
MIZ001>003-009>011-084-072200-
WESTERN UPPER MICHIGAN

CITY           SKY/WX    TMP DP  RH WIND       PRES   REMARKS
IRON MOUNTAIN  CLOUDY    35  30  82 SW7       29.51R WCI  29
HOUGHTON       MIX PCPN  33  30  88 E5        29.47R VSB 1/2 WCI  29
COPPER HARBOR    N/A     33  32  96 CALM      29.50R
IRONWOOD       CLOUDY    34  34 100 W9        29.44S WCI  26
$$

ABBREVIATIONS USED IN REMARKS
   TC - TEMPERATURE IN CELSIUS
  WCI - WIND CHILL INDEX
   HX - HEAT INDEX
  VSB - VISIBILITY




USA.gov is the U.S. government's official web portal to all federal, state and local government web resources and services.